Lynchburg, VA

3:27 PM EDT on July 27, 2017 (GMT -0400)
Lynchburg Regional-Glenn

Weather History for KLYH - May, 2014

Change the Weather History Date:

Friday, May 9, 2014

  Actual Average Record
Temperature  
Mean Temperature 71 °F 61 °F  
Max Temperature 88 °F 74 °F 94 °F (1936)
Min Temperature 54 °F 49 °F 32 °F (1947)
Degree Days  
Heating Degree Days 0 5  
Month to date heating degree days 28 50  
Since 1 July heating degree days 4403 4373  
Cooling Degree Days 6 1  
Month to date cooling degree days 16 9  
Year to date cooling degree days 35 27  
Growing Degree Days 20 (Base 50)    
Moisture  
Dew Point 57 °F    
Average Humidity 64    
Maximum Humidity 93    
Minimum Humidity 34    
Precipitation  
Precipitation T in 0.11 in 0.87 in (1989)
Month to date precipitation 0.02 1.01  
Year to date precipitation 15.65 13.97  
Snow  
Snow 0.00 in - - ()
Month to date snowfall 0.0  
Since 1 July snowfall 21.4  
Snow Depth 0.00 in    
Sea Level Pressure  
Sea Level Pressure 30.06 in    
Wind  
Wind Speed 5 mph (SSW)    
Max Wind Speed 22 mph    
Max Gust Speed 33 mph    
Visibility 10 miles    
Events Rain    
T = Trace of Precipitation, MM = Missing Value Source: NWS Daily Summary

Daily Weather History Graph

Daily Weather History Graph

Search for Another Location

Airport or City:

Trip Planner

Search our weather history database for the weather conditions in past years. The results will help you decide how hot, cold, wet, or windy it might be!

Date:

Astronomy

May. 09, 2014 Rise Set
Actual Time 6:13 AM EDT 8:13 PM EDT
Civil Twilight 5:44 AM EDT 8:42 PM EDT
Nautical Twilight 5:09 AM EDT 9:17 PM EDT
Astronomical Twilight 4:32 AM EDT 9:55 PM EDT
Moon 3:15 PM EDT (5/9) 3:07 AM EDT (5/9)
Length of Visible Light 14h 57m
Length of Day
14h 00m
Waxing Gibbous, 73% of the Moon is Illuminated
May 9
Waxing Gibbous
May 14
Full
May 21
Last Quarter
May 28
New
Jun 5
First Quarter

Hourly Weather History & Observations

Time (EDT) Temp. Heat Index Dew Point Humidity Pressure Visibility Wind Dir Wind Speed Gust Speed Precip Events Conditions
12:54 AM 61.0 °F - 53.1 °F 75% 30.09 in 10.0 mi Calm Calm - N/A   Clear
1:54 AM 60.1 °F - 52.0 °F 75% 30.08 in 10.0 mi South 3.5 mph - N/A   Clear
2:54 AM 60.1 °F - 53.1 °F 78% 30.07 in 10.0 mi Calm Calm - N/A   Clear
3:54 AM 57.0 °F - 53.1 °F 87% 30.08 in 10.0 mi Calm Calm - N/A   Clear
4:54 AM 55.4 °F - 51.8 °F 88% 30.10 in 10.0 mi Calm Calm - N/A   Clear
5:54 AM 54.0 °F - 52.0 °F 93% 30.08 in 10.0 mi Calm Calm - N/A   Clear
6:54 AM 57.0 °F - 54.0 °F 89% 30.10 in 10.0 mi Calm Calm - N/A   Clear
7:54 AM 64.0 °F - 57.0 °F 78% 30.11 in 10.0 mi South 3.5 mph - N/A   Clear
8:54 AM 70.0 °F - 57.0 °F 63% 30.12 in 10.0 mi South 4.6 mph - N/A   Clear
9:54 AM 77.0 °F - 57.0 °F 50% 30.12 in 10.0 mi SW 8.1 mph - N/A   Clear
10:54 AM 80.1 °F 80.6 °F 57.9 °F 47% 30.11 in 10.0 mi SSW 8.1 mph - N/A   Clear
11:54 AM 82.9 °F 82.4 °F 57.0 °F 41% 30.10 in 10.0 mi SW 8.1 mph 16.1 mph N/A   Clear
12:54 PM 84.0 °F 83.0 °F 55.9 °F 38% 30.08 in 10.0 mi SW 11.5 mph 20.7 mph N/A   Clear
1:54 PM 86.0 °F 84.7 °F 55.9 °F 36% 30.05 in 10.0 mi SW 11.5 mph 25.3 mph N/A   Partly Cloudy
2:54 PM 86.0 °F 84.9 °F 57.0 °F 37% 30.01 in 10.0 mi SSW 12.7 mph 19.6 mph N/A   Clear
3:54 PM 87.1 °F 85.3 °F 55.0 °F 33% 29.99 in 10.0 mi SW 11.5 mph 21.9 mph N/A   Clear
4:54 PM 84.9 °F 84.2 °F 57.9 °F 40% 29.98 in 10.0 mi SSW 11.5 mph - N/A   Clear
5:54 PM 82.0 °F 82.0 °F 57.9 °F 44% 29.97 in 10.0 mi SSW 16.1 mph 28.8 mph N/A   Mostly Cloudy
6:54 PM 71.1 °F - 61.0 °F 70% 30.01 in 10.0 mi WSW 4.6 mph - 0.00 in Rain Light Rain
7:54 PM 69.1 °F - 63.0 °F 81% 30.03 in 10.0 mi Calm Calm - 0.00 in Rain Light Rain
8:54 PM 66.9 °F - 64.0 °F 90% 30.04 in 10.0 mi South 3.5 mph - 0.00 in   Mostly Cloudy
9:54 PM 66.9 °F - 64.0 °F 90% 30.04 in 10.0 mi SSW 3.5 mph - 0.00 in Rain Light Rain
10:54 PM 68.0 °F - 62.1 °F 81% 30.02 in 10.0 mi SW 4.6 mph - N/A   Partly Cloudy
11:54 PM 68.0 °F - 61.0 °F 78% 30.01 in 10.0 mi Calm Calm - N/A   Clear